Weather History for Cody, WY

Change the Weather History Date:

Sunday, March 3, 2013

  Actual Average Record
Temperature  
Mean Temperature 40 °F -  
Max Temperature 53 °F 40 °F 75 °F (1921)
Min Temperature 26 °F 19 °F -10 °F (1954)
Degree Days  
Heating Degree Days 26    
Moisture  
Dew Point 26 °F    
Average Humidity 54    
Maximum Humidity 93    
Minimum Humidity 30    
Precipitation  
Precipitation 0.00 in - - ()
Sea Level Pressure  
Sea Level Pressure 29.70 in    
Wind  
Wind Speed 14 mph (West)    
Max Wind Speed 25 mph    
Max Gust Speed 38 mph    
Visibility 10 miles    
Events      
Averages and records for this station are not official NWS values.
T = Trace of Precipitation, MM = Missing Value Source: NWS Daily Summary

Daily Weather History Graph

Daily Weather History Graph

Search for Another Location

Airport:

Trip Planner

Search our weather history database for the weather conditions in past years. The results will help you decide how hot, cold, wet, or windy it might be!

Date:

Astronomy

Mar. 03, 2013 Rise Set
Actual Time 6:49 AM MST 6:07 PM MST
Civil Twilight 6:20 AM MST 6:36 PM MST
Nautical Twilight 5:46 AM MST 7:09 PM MST
Astronomical Twilight 5:12 AM MST 7:43 PM MST
Moon 12:04 AM MST (3/3) 9:51 AM MST (3/3)
Length of Visible Light 12h 15m
Length of Day
11h 17m
Waning Gibbous, 63% of the Moon is Illuminated
Mar 3
Waning Gibbous
Mar 4
Last Quarter
Mar 11
New
Mar 19
First Quarter
Mar 27
Full

Hourly Weather History & Observations

Time (MST) Temp. Windchill Dew Point Humidity Pressure Visibility Wind Dir Wind Speed Gust Speed Precip Events Conditions
12:15 AM 44.6 °F 40.2 °F 23.0 °F 43% 29.88 in 10.0 mi NNW 8.1 mph - N/A   Clear
12:55 AM 42.8 °F 36.2 °F 21.2 °F 42% 29.86 in 10.0 mi West 12.7 mph 23.0 mph N/A   Clear
1:15 AM 48.2 °F - 24.8 °F 40% 29.85 in 10.0 mi WSW 17.3 mph 25.3 mph N/A   Clear
1:35 AM 48.2 °F - 24.8 °F 40% 29.85 in 10.0 mi West 20.7 mph 26.5 mph N/A   Clear
1:55 AM 48.2 °F - 24.8 °F 40% 29.84 in 10.0 mi WSW 19.6 mph 28.8 mph N/A   Clear
2:15 AM 46.4 °F 40.4 °F 24.8 °F 43% 29.84 in 10.0 mi WSW 13.8 mph 25.3 mph N/A   Clear
2:35 AM 46.4 °F 39.8 °F 26.6 °F 46% 29.82 in 10.0 mi WSW 16.1 mph 26.5 mph N/A   Clear
2:55 AM 46.4 °F 39.2 °F 28.4 °F 50% 29.81 in 10.0 mi WSW 18.4 mph 28.8 mph N/A   Clear
3:15 AM 46.4 °F 39.5 °F 28.4 °F 50% 29.80 in 10.0 mi WSW 17.3 mph 27.6 mph N/A   Clear
3:35 AM 44.6 °F 36.9 °F 28.4 °F 53% 29.79 in 10.0 mi West 18.4 mph 23.0 mph N/A   Clear
3:55 AM 44.6 °F 38.1 °F 28.4 °F 53% 29.78 in 10.0 mi WSW 13.8 mph 23.0 mph N/A   Clear
4:15 AM 44.6 °F 39.7 °F 28.4 °F 53% 29.78 in 10.0 mi WSW 9.2 mph 16.1 mph N/A   Clear
4:35 AM 41.0 °F 33.9 °F 28.4 °F 61% 29.77 in 10.0 mi SW 12.7 mph - N/A   Clear
5:35 AM 42.8 °F 37.5 °F 28.4 °F 57% 29.77 in 10.0 mi SW 9.2 mph - N/A   Clear
5:55 AM 39.2 °F 34.2 °F 30.2 °F 70% 29.77 in 10.0 mi NE 6.9 mph - N/A   Partly Cloudy
6:15 AM 41.0 °F 39.0 °F 30.2 °F 65% 29.77 in 10.0 mi SSE 3.5 mph - N/A   Scattered Clouds
6:35 AM 42.8 °F - 30.2 °F 61% 29.77 in 10.0 mi Calm Calm - N/A   Overcast
6:55 AM 42.8 °F 37.5 °F 30.2 °F 61% 29.76 in 10.0 mi South 9.2 mph - N/A   Overcast
7:15 AM 42.8 °F 39.3 °F 30.2 °F 61% 29.76 in 10.0 mi SSW 5.8 mph - N/A   Overcast
7:35 AM 42.8 °F 38.6 °F 30.2 °F 61% 29.75 in 10.0 mi SSW 6.9 mph - N/A   Overcast
7:55 AM 42.8 °F 36.2 °F 32.0 °F 66% 29.74 in 10.0 mi SSW 12.7 mph 18.4 mph N/A   Overcast
8:15 AM 44.6 °F 38.1 °F 30.2 °F 57% 29.73 in 10.0 mi SW 13.8 mph 26.5 mph N/A   Overcast
8:35 AM 46.4 °F 40.7 °F 30.2 °F 53% 29.72 in 10.0 mi South 12.7 mph 24.2 mph N/A   Overcast
8:55 AM 46.4 °F 41.5 °F 30.2 °F 53% 29.70 in 10.0 mi SSW 10.4 mph 17.3 mph N/A   Overcast
9:15 AM 48.2 °F - 30.2 °F 50% 29.70 in 10.0 mi WSW 19.6 mph 24.2 mph N/A   Overcast
9:35 AM 48.2 °F - 30.2 °F 50% 29.69 in 10.0 mi WSW 17.3 mph 28.8 mph N/A   Overcast
9:55 AM 46.4 °F 39.5 °F 28.4 °F 50% 29.68 in 10.0 mi WSW 17.3 mph 24.2 mph N/A   Mostly Cloudy
10:15 AM 48.2 °F - 30.2 °F 50% 29.67 in 10.0 mi West 19.6 mph 33.4 mph N/A   Overcast
10:35 AM 48.2 °F - 30.2 °F 50% 29.66 in 10.0 mi WSW 20.7 mph 28.8 mph N/A   Overcast
10:55 AM 50.0 °F - 30.2 °F 47% 29.64 in 10.0 mi West 18.4 mph 27.6 mph N/A   Scattered Clouds
11:15 AM 51.8 °F - 28.4 °F 41% 29.63 in 10.0 mi West 20.7 mph 33.4 mph N/A   Partly Cloudy
11:35 AM 51.8 °F - 28.4 °F 41% 29.62 in 10.0 mi West 20.7 mph 28.8 mph N/A   Clear
12:15 PM 51.8 °F - 28.4 °F 41% 29.59 in 10.0 mi WSW 16.1 mph 32.2 mph N/A   Clear
12:35 PM 51.8 °F - 28.4 °F 41% 29.58 in 10.0 mi WSW 18.4 mph 31.1 mph N/A   Clear
12:55 PM 51.8 °F - 28.4 °F 41% 29.56 in 10.0 mi WSW 18.4 mph 29.9 mph N/A   Clear
1:15 PM 51.8 °F - 28.4 °F 41% 29.55 in 10.0 mi WSW 24.2 mph 38.0 mph N/A   Clear
1:35 PM 51.8 °F - 30.2 °F 44% 29.54 in 10.0 mi WSW 25.3 mph 38.0 mph N/A   Clear
1:55 PM 51.8 °F - 28.4 °F 41% 29.54 in 10.0 mi WSW 21.9 mph 36.8 mph N/A   Clear
2:15 PM 51.8 °F - 28.4 °F 41% 29.54 in 10.0 mi WSW 17.3 mph 27.6 mph N/A   Clear
2:35 PM 51.8 °F - 30.2 °F 44% 29.53 in 10.0 mi WSW 19.6 mph 23.0 mph N/A   Clear
2:56 PM 53.6 °F - 28.4 °F 38% 29.54 in 10.0 mi WSW 16.1 mph 25.3 mph N/A   Clear
3:15 PM 53.6 °F - 26.6 °F 35% 29.54 in 10.0 mi WSW 16.1 mph 23.0 mph N/A   Clear
3:55 PM 51.8 °F - 24.8 °F 35% 29.53 in 10.0 mi WSW 12.7 mph 18.4 mph N/A   Clear
4:15 PM 51.8 °F - 21.2 °F 30% 29.53 in 10.0 mi SW 15.0 mph 19.6 mph N/A   Clear
4:35 PM 51.8 °F - 23.0 °F 33% 29.53 in 10.0 mi West 10.4 mph - N/A   Clear
4:55 PM 48.2 °F - 19.4 °F 32% 29.58 in 10.0 mi NE 20.7 mph 29.9 mph N/A   Clear
5:35 PM 30.2 °F 17.8 °F 24.8 °F 80% 29.62 in 10.0 mi NNE 19.6 mph 26.5 mph N/A   Scattered Clouds
5:55 PM 30.2 °F 16.5 °F 23.0 °F 75% 29.62 in 10.0 mi NNE 24.2 mph 31.1 mph N/A   Overcast
6:15 PM 28.4 °F 14.4 °F 23.0 °F 80% 29.66 in 10.0 mi North 23.0 mph 31.1 mph N/A   Overcast
6:35 PM 28.4 °F 14.1 °F 24.8 °F 86% 29.67 in 10.0 mi North 24.2 mph 31.1 mph N/A   Mostly Cloudy
6:55 PM 28.4 °F 14.1 °F 24.8 °F 86% 29.68 in 3.0 mi NNE 24.2 mph 27.6 mph N/A   Overcast
7:15 PM 26.6 °F 13.8 °F 24.8 °F 93% 29.70 in 2.5 mi NE 17.3 mph 28.8 mph N/A   Overcast
7:55 PM 26.6 °F 16.8 °F 24.8 °F 93% 29.72 in 10.0 mi NNE 10.4 mph - N/A   Mostly Cloudy
8:15 PM 28.4 °F 22.2 °F 21.2 °F 74% 29.73 in 10.0 mi NNE 5.8 mph - N/A   Overcast
8:35 PM 28.4 °F - 21.2 °F 74% - 10.0 mi North - - N/A   Overcast
8:55 PM 30.2 °F 26.7 °F 17.6 °F 60% 29.74 in 10.0 mi WNW 3.5 mph - N/A   Overcast
9:15 PM 30.2 °F 26.7 °F 19.4 °F 64% 29.75 in 10.0 mi West 3.5 mph - N/A   Overcast
9:36 PM 30.2 °F 23.4 °F 19.4 °F 64% 29.77 in 10.0 mi WNW 6.9 mph - N/A   Scattered Clouds
9:55 PM 30.2 °F 22.6 °F 17.6 °F 60% 29.77 in 10.0 mi WNW 8.1 mph - N/A   Partly Cloudy
10:15 PM 28.4 °F 18.0 °F 15.8 °F 59% 29.78 in 10.0 mi West 12.7 mph 20.7 mph N/A   Clear
10:55 PM 28.4 °F 19.7 °F 12.2 °F 51% 29.79 in 10.0 mi WNW 9.2 mph - N/A   Clear
11:15 PM 28.4 °F 21.2 °F 12.2 °F 51% 29.80 in 10.0 mi WNW 6.9 mph - N/A   Clear
11:35 PM 28.4 °F 20.4 °F 10.4 °F 47% 29.81 in 10.0 mi West 8.1 mph - N/A   Clear